Overview Statistics Trail Chart Weather Telemetry Raw packets
 

This is the latest recevied weather packets stored in our database for station/object N8TWM-13. If no packets are shown the sender has not sent any weather packets the latest 10 day(s).

<< 6 7 8 9 10 11 12 >>
Time Temp. Humidity Pressure Rain* Wind** Luminosity Snow
1788565876 26.11° C 79% 1016.4 hPa 0 mm - 5 W/m² -
1788565572 26.11° C 79% 1015.9 hPa 0 mm - 8 W/m² -
1788565267 26.11° C 79% 1016.2 hPa 0 mm - 12 W/m² -
1788564963 26.67° C 78% 1016.1 hPa 0 mm - 16 W/m² -
1788564658 26.67° C 78% 1016 hPa 0 mm - 19 W/m² -
1788564355 26.67° C 76% 1016.2 hPa 0 mm - 22 W/m² -
1788564051 27.22° C 75% 1016.4 hPa 0 mm - 27 W/m² -
1788563747 27.22° C 75% 1016.4 hPa 0 mm - 42 W/m² -
1788563442 27.22° C 75% 1016.3 hPa 0 mm - 39 W/m² -
1788563141 27.22° C 75% 1016.6 hPa 0 mm - 39 W/m² -
1788562836 27.78° C 74% 1016.1 hPa 0 mm - 64 W/m² -
1788562534 27.78° C 74% 1016.3 hPa 0 mm - 73 W/m² -
1788562233 27.78° C 74% 1016.2 hPa 0 mm - 96 W/m² -
1788561929 27.78° C 74% 1016.3 hPa 0 mm - 116 W/m² -
1788561629 28.33° C 72% 1016.2 hPa 0 mm - 118 W/m² -
1788561327 28.33° C 72% 1016.1 hPa 0 mm - 158 W/m² -
1788561024 27.22° C 74% 1016 hPa 0 mm - 150 W/m² -
1788560719 27.22° C 75% 1015.8 hPa 0 mm - 95 W/m² -
1788560414 27.22° C 76% 1015.9 hPa 0 mm - 121 W/m² -
1788560109 27.22° C 76% 1015.8 hPa 0 mm - 88 W/m² -
1788559803 27.22° C 76% 1015.8 hPa 0 mm - 97 W/m² -
1788559503 27.22° C 76% 1015.7 hPa 0 mm - 90 W/m² -
1788559198 27.22° C 74% 1015.6 hPa 0 mm - 48 W/m² -
1788558893 27.22° C 73% 1015.5 hPa 0 mm - 60 W/m² -
1788558589 27.78° C 72% 1015.2 hPa 0 mm - 46 W/m² -

* Rain latest hour (hover to see other rain measurements)
** Current wind speed in m/s (hover to see current wind gust speed)